This is the latest recevied weather packets stored in our database for station/object 5B4ALR-13. If no packets are shown the sender has not sent any weather packets the latest 10 day(s).
| Time | Temp. | Humidity | Pressure | Rain* | Wind** | Luminosity | Snow |
|---|---|---|---|---|---|---|---|
| 1777810265 | 17.22° C | 80% | 1008.3 hPa | 0.25 mm | - | - | - |
| 1777809665 | 17.22° C | 81% | 1008.5 hPa | 0 mm | - | - | - |
| 1777809065 | 17.22° C | 82% | 1008.6 hPa | 0 mm | - | - | - |
| 1777808465 | 17.22° C | 82% | 1008.5 hPa | 0 mm | - | - | - |
| 1777807865 | 17.78° C | 83% | 1008.4 hPa | 0.25 mm | - | - | - |
| 1777807265 | 17.78° C | 83% | 1008.4 hPa | 0.25 mm | - | - | - |
| 1777806665 | 17.22° C | 84% | 1008 hPa | 0.25 mm | - | - | - |
| 1777806065 | 17.22° C | 84% | 1007.8 hPa | 0.76 mm | - | - | - |
| 1777805465 | 17.22° C | 84% | 1007.9 hPa | 0.76 mm | - | - | - |
| 1777804865 | 17.22° C | 84% | 1008 hPa | 1.27 mm | - | - | - |
| 1777804265 | 17.22° C | 83% | 1008 hPa | 1.27 mm | - | - | - |
| 1777803665 | 17.22° C | 82% | 1008 hPa | 1.27 mm | - | - | - |
| 1777803065 | 17.78° C | 82% | 1008 hPa | 1.02 mm | - | - | - |
| 1777802465 | 17.78° C | 81% | 1007.9 hPa | 1.02 mm | - | - | - |
| 1777801865 | 17.78° C | 80% | 1007.8 hPa | 0.76 mm | - | - | - |
| 1777801265 | 17.78° C | 79% | 1007.9 hPa | 0.76 mm | - | - | - |
| 1777800665 | 18.33° C | 77% | 1007.8 hPa | 0.51 mm | - | - | - |
| 1777800065 | 18.33° C | 76% | 1007.5 hPa | 0.25 mm | - | - | - |
| 1777799465 | 18.33° C | 75% | 1007.6 hPa | 0.25 mm | - | - | - |
| 1777798865 | 18.33° C | 75% | 1007.7 hPa | 0 mm | - | - | - |
| 1777798265 | 18.89° C | 73% | 1007.7 hPa | 0 mm | - | - | - |
| 1777797665 | 18.89° C | 73% | 1007.8 hPa | 0 mm | - | - | - |
| 1777797065 | 19.44° C | 72% | 1007.7 hPa | 0 mm | - | - | - |
| 1777796465 | 20° C | 71% | 1007.7 hPa | 0 mm | - | - | - |
| 1777795865 | 20° C | 70% | 1007.5 hPa | 0 mm | - | - | - |
* Rain latest hour (hover to see other rain measurements)
** Current wind speed in m/s (hover to see current wind gust speed)